CALSPHERE 1 1 00900U 64063C 22145.73470203 .00000699 00000-0 73514-3 0 9995 2 00900 90.1767 40.4975 0029540 88.4928 334.0224 13.73796288867541 CALSPHERE 2 1 00902U 64063E 22145.74504815 .00000037 00000-0 42228-4 0 9990 2 00902 90.1909 43.5612 0017239 208.4384 213.2574 13.52714868655705 LCS 1 1 01361U 65034C 22145.29630431 .00000013 00000-0 59721-3 0 9992 2 01361 32.1399 100.2660 0013315 156.1644 203.9471 9.89301505 62931 TEMPSAT 1 1 01512U 65065E 22145.74027927 .00000030 00000-0 40743-4 0 9998 2 01512 89.9147 218.8477 0072033 94.3880 29.4272 13.33450644762344 CALSPHERE 4(A) 1 01520U 65065H 22145.88499473 .00000121 00000-0 21727-3 0 9992 2 01520 89.9907 130.1772 0068241 328.7779 114.6690 13.35887266764640 OPS 5712 (P/L 160) 1 02826U 67053A 22145.84790320 .00003337 00000-0 86636-3 0 9994 2 02826 69.9292 342.1399 0005020 11.4656 348.6591 14.50540184849456 OPS 5712 (P/L 153) 1 2874U 67053H 22146.14831831 .00000020 00000-0 53334-4 0 9990 2 2874 69.9756 52.9195 0009233 308.4654 51.5623 13.96403568800198 SURCAL 150B 1 02909U 67053J 22145.91281381 .00005542 00000-0 10695-2 0 9997 2 02909 69.9483 332.5275 0002551 46.8356 313.2998 14.63952513860315 RIGIDSPHERE 2 (LCS 4) 1 05398U 71067E 22145.80707015 .00000747 00000-0 25365-3 0 9990 2 05398 87.6260 29.2361 0065473 99.5770 261.2833 14.34223866661019